Pittsfield, MA

12:29 PM EST on February 25, 2017 (GMT -0500)
Pittsfield Municipal

Weather History for KPSF - July, 2013

Change the Weather History Date:

Sunday, July 28, 2013

  Actual Average Record
Temperature  
Mean Temperature 66 °F 68 °F  
Max Temperature 72 °F 79 °F 90 °F (1931)
Min Temperature 59 °F 57 °F 44 °F (2001)
Degree Days  
Heating Degree Days 0 1  
Month to date heating degree days 7 28  
Since 1 June heating degree days 115 129  
Since 1 July heating degree days 7 28  
Cooling Degree Days 1 4  
Month to date cooling degree days 221 101  
Year to date cooling degree days 332 170  
Since 1 June cooling degree days 307 157  
Growing Degree Days 16 (Base 50)    
Moisture  
Dew Point 63 °F    
Average Humidity 87    
Maximum Humidity 100    
Minimum Humidity 73    
Precipitation  
Precipitation 0.13 in 0.16 in 2.61 in (1969)
Month to date precipitation 1.31 3.72  
Year to date precipitation 23.27 25.16  
Sea Level Pressure  
Sea Level Pressure 29.94 in    
Wind  
Wind Speed 2 mph (SSE)    
Max Wind Speed 9 mph    
Max Gust Speed 15 mph    
Visibility 6 miles    
Events Rain    
T = Trace of Precipitation, MM = Missing Value Source: NWS Daily Summary

Daily Weather History Graph

Daily Weather History Graph

Search for Another Location

Airport or City:

Trip Planner

Search our weather history database for the weather conditions in past years. The results will help you decide how hot, cold, wet, or windy it might be!

Date:

Astronomy

Jul. 28, 2013 Rise Set
Actual Time 5:41 AM EDT 8:17 PM EDT
Civil Twilight 5:09 AM EDT 8:49 PM EDT
Nautical Twilight 4:29 AM EDT 9:29 PM EDT
Astronomical Twilight 3:43 AM EDT 10:14 PM EDT
Moon 11:26 PM EDT (7/28) 12:30 PM EDT (7/28)
Length of Visible Light 15h 39m
Length of Day
14h 35m
Waning Gibbous, 61% of the Moon is Illuminated
Jul 28
Waning Gibbous
Jul 29
Last Quarter
Aug 6
New
Aug 14
First Quarter
Aug 20
Full

Hourly Weather History & Observations

Time (EDT) Temp. Dew Point Humidity Pressure Visibility Wind Dir Wind Speed Gust Speed Precip Events Conditions
12:54 AM 62.1 °F 60.1 °F 93% 29.94 in 7.0 mi Calm Calm - N/A   Mostly Cloudy
1:54 AM 62.1 °F 60.1 °F 93% 29.94 in 7.0 mi Calm Calm - N/A   Partly Cloudy
2:54 AM 62.1 °F 60.1 °F 93% 29.93 in 6.0 mi Calm Calm - N/A   Mostly Cloudy
3:54 AM 61.0 °F 60.1 °F 97% 29.92 in 4.0 mi Calm Calm - N/A   Scattered Clouds
4:54 AM 61.0 °F 59.0 °F 93% 29.93 in 5.0 mi Calm Calm - N/A   Overcast
5:54 AM 61.0 °F 59.0 °F 93% 29.92 in 3.0 mi NW 3.5 mph - N/A   Clear
6:54 AM 61.0 °F 59.0 °F 93% 29.93 in 6.0 mi Calm Calm - N/A   Mostly Cloudy
7:54 AM 63.0 °F 60.1 °F 90% 29.95 in 7.0 mi ESE 3.5 mph - 0.00 in   Overcast
8:54 AM 64.0 °F 61.0 °F 90% 29.97 in 4.0 mi Calm Calm - 0.01 in Rain Light Rain
9:54 AM 66.0 °F 61.0 °F 84% 29.95 in 10.0 mi ESE 4.6 mph - 0.01 in Rain Light Rain
10:54 AM 69.1 °F 62.1 °F 78% 29.93 in 10.0 mi Calm Calm - 0.00 in   Mostly Cloudy
11:54 AM 71.1 °F 62.1 °F 73% 29.92 in 10.0 mi SSE 5.8 mph - N/A   Scattered Clouds
12:54 PM 71.1 °F 62.1 °F 73% 29.93 in 10.0 mi SW 4.6 mph - N/A   Overcast
1:22 PM 68.0 °F 64.4 °F 88% 30.01 in 1.5 mi South 8.1 mph - 0.03 in Rain Rain
1:38 PM 68.0 °F 62.6 °F 83% 30.00 in 3.0 mi SSW 5.8 mph - 0.07 in Rain Light Rain
1:54 PM 68.0 °F 64.0 °F 87% 29.95 in 5.0 mi Calm Calm - 0.09 in Rain Light Rain
2:31 PM 68.0 °F 66.2 °F 94% 29.99 in 5.0 mi Calm Calm - 0.01 in Rain Light Rain
2:54 PM 69.1 °F 66.0 °F 90% 29.92 in 6.0 mi Calm Calm - 0.01 in Rain Light Rain
3:54 PM 71.1 °F 66.9 °F 87% 29.91 in 6.0 mi NNE 3.5 mph - 0.00 in   Partly Cloudy
4:54 PM 71.1 °F 68.0 °F 90% 29.91 in 6.0 mi Calm Calm - N/A   Scattered Clouds
5:42 PM 71.6 °F 66.2 °F 83% 29.97 in 8.0 mi SE 4.6 mph - N/A   Overcast
5:54 PM 72.0 °F 66.9 °F 84% 29.91 in 4.0 mi Calm Calm - 0.01 in Rain Light Rain
6:52 PM 71.6 °F 66.2 °F 83% 29.98 in 8.0 mi SSE 4.6 mph - 0.00 in   Mostly Cloudy
6:54 PM 71.1 °F 66.0 °F 84% 29.92 in 8.0 mi SE 3.5 mph - 0.00 in   Mostly Cloudy
7:51 PM 69.8 °F 66.2 °F 88% 29.99 in 5.0 mi Calm Calm - 0.00 in Rain Light Rain
7:54 PM 70.0 °F 66.9 °F 90% 29.93 in 4.0 mi Calm Calm - 0.00 in Rain Light Rain
8:54 PM 66.9 °F 66.0 °F 97% 29.93 in 4.0 mi Calm Calm - 0.00 in   Scattered Clouds
9:54 PM 66.9 °F 64.9 °F 93% 29.94 in 6.0 mi SE 3.5 mph - N/A   Mostly Cloudy
10:54 PM 66.0 °F 64.0 °F 93% 29.94 in 6.0 mi Calm Calm - N/A   Clear
11:54 PM 66.9 °F 63.0 °F 87% 29.93 in 9.0 mi SSE 9.2 mph - 0.00 in   Mostly Cloudy